Theta_e
348 348 348 348 348 352 349 348 350 350 349 351 352 354 354 356 357 357 357 358 359 360 360 361 361 360 360 359 358 357 357 356 354 351 348 345 342 341 339 338 336 336
349 349 350 350 349 351 352 351 350 352 351 351 354 355 355 356 356 357 357 357 359 359 360 361 361 360 358 358 357 356 356 356 353 356 348 346 343 342 339 338 338 337
349 349 349 349 349 349 351 353 351 352 353 353 354 356 356 357 356 356 357 357 357 358 359 360 360 360 359 358 357 356 356 355 354 355 350 347 345 343 342 339 338 338
349 350 350 350 351 350 351 353 353 352 352 354 354 356 357 358 357 356 356 361 357 358 358 360 360 360 359 357 357 357 356 355 356 355 353 349 347 345 343 341 340 338
349 350 351 351 352 352 352 352 353 353 352 353 355 356 358 358 357 356 356 357 357 357 358 358 359 359 359 358 356 356 356 355 355 354 354 350 348 346 345 343 341 339
350 351 351 352 352 352 352 351 353 354 354 352 354 357 357 358 358 357 356 356 358 358 358 358 358 359 358 358 356 355 356 355 355 354 353 352 350 348 347 345 343 340
350 351 351 352 352 353 352 352 353 355 355 354 354 355 357 357 358 358 357 357 357 358 358 358 358 358 358 357 356 355 356 357 355 354 353 353 352 349 348 346 344 342
351 351 352 352 351 352 352 352 352 354 356 356 354 355 357 357 357 358 358 357 356 357 358 358 358 358 358 357 356 356 355 357 356 354 353 353 352 350 349 348 346 344
351 351 352 351 351 351 352 352 353 352 355 357 356 355 357 357 357 357 358 357 357 357 357 357 358 358 358 358 356 356 355 355 356 356 354 353 352 351 350 349 347 345
351 351 351 351 351 351 351 352 353 353 353 355 358 358 357 357 358 358 357 357 356 356 356 357 357 358 358 358 357 357 356 356 356 356 355 355 353 353 352 350 348 346
351 351 351 351 351 351 352 353 353 353 353 353 355 357 358 357 357 358 357 357 356 356 356 357 357 358 358 358 358 358 357 357 356 356 356 355 355 354 356 352 350 348
351 351 351 350 351 351 352 352 353 353 353 353 353 354 357 358 357 357 357 357 357 356 356 357 358 358 358 358 358 358 358 357 357 357 357 356 356 356 355 354 352 350
351 352 352 351 351 351 352 352 353 353 353 352 353 353 353 356 358 357 356 356 357 357 356 356 357 358 358 358 358 358 358 358 357 357 357 357 357 357 356 355 354 352
352 353 352 352 352 352 352 352 353 353 353 353 353 352 352 353 355 357 357 356 356 357 357 357 356 356 358 358 359 358 358 358 358 357 357 356 357 357 357 356 355 354
354 354 354 353 353 352 352 352 352 353 353 354 353 352 353 352 353 355 356 356 355 355 356 358 357 356 356 358 358 358 358 358 358 357 357 356 355 356 357 357 356 356
354 354 354 353 353 352 352 352 352 352 353 353 353 353 352 352 352 353 354 355 355 354 354 355 357 358 350 339 343 358 358 358 358 357 357 356 355 354 354 355 356 356
355 354 354 353 353 352 352 352 352 352 352 352 352 353 353 352 352 352 353 354 355 355 354 354 355 356 341 335 335 338 354 358 357 357 357 356 355 354 353 353 355 356
355 354 354 353 353 352 352 352 352 351 351 351 351 351 353 353 352 352 352 353 354 355 355 355 355 342 334 333 333 333 339 357 358 357 357 357 356 355 355 354 353 354
355 354 353 353 353 353 353 352 351 351 350 350 350 351 352 352 352 352 351 352 353 353 354 355 356 341 333 330 331 331 331 342 358 358 357 357 357 356 356 355 354 353
355 354 353 353 353 352 352 352 351 350 350 351 351 351 350 351 352 352 352 351 351 352 353 354 355 342 331 328 328 328 330 334 356 357 357 357 357 357 357 356 355 354
356 355 353 353 353 352 352 352 352 352 351 351 351 350 350 350 351 351 352 352 351 351 352 353 355 338 329 326 325 325 327 330 352 357 357 357 357 357 357 357 357 357
357 355 354 354 353 352 351 351 352 352 351 352 351 351 351 351 352 353 353 353 353 352 351 351 354 335 327 325 324 324 326 339 349 353 355 356 357 357 357 358 358 358
358 357 355 354 353 352 351 351 351 352 352 353 351 351 350 350 350 351 353 354 354 353 352 352 353 340 325 323 322 322 324 343 348 351 354 355 356 357 357 357 358 358
359 359 357 356 354 353 352 352 352 353 353 354 352 351 350 351 351 351 352 354 354 354 355 353 353 343 322 320 320 320 328 346 349 351 352 353 354 356 357 357 357 350
360 360 358 357 356 355 354 353 353 353 353 354 354 353 352 352 352 351 351 352 353 354 352 354 355 346 318 319 318 319 328 347 351 351 352 352 354 354 356 357 357 353
360 360 359 359 357 357 357 356 356 355 354 354 354 354 352 352 352 351 351 352 353 353 353 354 355 356 334 317 317 317 320 346 353 352 351 352 354 354 354 355 356 356
Wind_Speed
13 11 12 11 10 9 10 10 9 10 9 8 9 9 10 9 8 9 10 9 9 9 8 8 8 7 7 6 6 6 6 6 6 6 6 6 5 5 6 5 4 5
14 13 11 10 9 8 8 10 10 10 10 10 9 8 8 7 8 9 9 9 9 9 9 9 8 8 7 7 6 7 6 6 7 5 7 7 6 6 6 6 5 4
13 13 13 13 12 13 12 10 10 10 10 9 8 8 8 8 9 9 9 9 9 9 9 9 9 9 8 7 7 7 7 7 8 6 7 8 6 7 6 6 5 6
14 14 14 14 13 12 11 10 9 9 8 7 9 9 9 8 9 10 9 9 9 9 9 9 10 9 9 9 7 7 7 8 8 7 7 6 7 7 7 6 6 6
15 14 12 12 11 11 10 10 11 10 11 11 9 8 9 9 9 10 9 9 9 9 9 10 9 10 9 9 8 8 7 7 7 7 8 8 7 7 7 7 7 8
13 13 12 11 11 11 11 12 12 11 12 11 12 9 9 10 10 10 10 10 9 10 10 10 10 10 10 9 9 9 8 8 8 8 9 9 8 7 6 7 8 8
15 14 14 12 11 11 11 11 11 11 11 11 9 10 9 10 11 11 11 11 10 10 10 10 10 10 9 9 9 10 9 9 8 9 10 9 8 8 8 8 9 9
16 14 14 13 13 12 12 12 11 11 11 9 10 11 10 11 11 10 10 11 11 11 11 11 11 11 11 10 10 11 11 8 9 10 10 10 8 9 9 8 9 10
14 13 13 14 14 13 14 13 12 11 10 10 11 11 10 11 11 11 11 11 11 11 11 11 12 11 11 11 11 12 12 11 10 11 11 11 11 11 11 10 10 10
15 14 14 14 15 14 15 14 13 11 10 11 11 10 11 11 11 11 11 11 12 11 12 12 12 12 12 12 13 13 12 12 12 11 11 12 13 12 11 11 12 11
16 15 15 16 16 14 15 15 14 12 11 12 11 11 11 11 10 10 11 12 12 13 13 13 13 13 13 13 12 12 13 12 12 12 12 13 13 13 12 13 13 13
16 16 17 18 17 16 16 15 14 13 13 12 12 13 12 12 12 11 12 13 14 14 13 14 13 13 14 14 13 12 12 12 12 13 13 13 13 12 12 12 13 14
17 17 16 16 16 16 14 14 14 14 14 14 13 14 14 13 13 14 12 13 14 13 14 14 14 13 13 13 13 13 13 13 13 13 13 12 12 13 13 12 12 12
16 16 16 16 15 15 15 15 15 15 15 14 13 15 15 15 14 14 13 13 13 13 14 13 12 12 12 13 13 13 13 13 14 13 14 13 13 13 13 12 13 12
15 14 13 14 14 14 15 15 15 15 14 14 14 14 13 15 14 14 13 14 13 13 13 12 12 12 12 12 13 14 13 14 14 14 13 13 13 13 13 13 12 12
15 14 14 14 14 15 15 15 14 14 14 14 15 15 14 13 13 14 14 15 14 14 13 12 12 11 15 20 18 14 14 12 12 12 13 12 12 13 13 13 13 13
14 14 13 14 14 14 14 15 15 13 13 14 14 14 14 14 13 14 15 14 15 15 15 14 12 12 19 19 20 21 15 12 12 12 12 12 12 13 13 14 13 13
14 14 14 14 13 14 14 14 13 14 14 14 14 14 13 12 14 15 15 14 13 14 15 14 14 17 19 19 20 21 18 14 12 12 12 12 12 13 12 11 12 12
14 14 15 14 14 14 13 13 14 14 14 14 15 14 12 13 15 15 15 14 14 15 15 15 14 18 19 19 19 20 21 18 12 12 13 13 12 12 12 11 11 11
14 15 15 15 14 14 13 14 14 15 15 13 12 12 13 14 15 16 15 15 15 15 14 14 15 17 19 19 20 21 21 18 15 14 13 12 12 12 11 12 13 12
14 14 14 14 14 14 14 15 15 14 14 13 13 13 14 15 15 16 15 15 15 15 14 14 14 19 18 20 20 21 21 18 14 13 12 12 12 12 13 13 13 12
14 14 14 14 14 14 15 15 15 15 15 13 12 12 12 12 12 12 13 14 14 14 14 15 14 17 18 20 21 21 19 12 12 13 13 13 13 12 12 12 12 12
14 15 14 14 14 15 15 15 14 14 13 11 13 13 13 13 14 13 12 13 14 13 15 15 14 15 18 19 19 19 13 11 12 12 13 14 14 13 12 12 12 12
14 15 15 15 14 15 15 15 14 13 13 12 14 14 14 14 13 12 12 12 13 14 14 14 13 11 15 16 18 19 17 13 12 12 14 14 14 13 12 11 13 18
14 15 15 15 15 15 14 15 14 14 13 12 13 13 14 12 12 12 12 11 12 13 15 15 12 10 14 17 19 21 18 12 12 12 13 13 12 12 12 11 12 13
13 15 15 15 15 14 13 13 12 12 12 12 12 11 11 11 11 11 13 12 11 11 11 12 11 9 11 18 20 21 23 15 11 12 13 13 12 12 11 11 11 11
Wind_Direction
192 193 196 197 196 193 189 189 189 190 191 188 193 196 195 198 188 190 192 190 193 194 196 198 200 202 199 197 197 195 197 202 200 193 195 187 191 183 194 207 218 200
194 194 197 198 198 194 194 192 190 190 191 192 196 193 195 187 194 191 191 193 192 195 194 197 199 200 199 197 197 192 197 196 202 188 192 195 199 188 201 202 207 220
194 196 196 197 198 198 194 193 192 193 191 193 187 189 191 192 191 194 193 190 193 194 193 197 200 201 200 200 194 195 194 197 203 193 190 200 194 194 207 200 200 206
198 198 199 201 201 200 195 189 196 197 192 181 192 191 189 191 191 194 194 192 193 195 194 195 201 203 201 201 193 196 197 199 202 189 194 199 200 198 203 196 205 207
197 199 202 203 203 199 193 196 197 197 197 198 191 184 187 189 191 195 193 195 195 197 194 197 200 204 204 203 199 201 198 201 199 194 196 200 204 198 204 192 203 214
196 200 202 203 202 196 197 199 199 197 201 199 198 188 189 188 192 195 195 194 197 196 197 198 199 204 203 204 201 206 201 201 201 195 202 205 204 204 200 199 203 212
195 196 199 200 202 202 203 204 201 200 201 204 195 197 190 190 193 196 196 197 195 198 198 199 200 202 203 204 204 208 206 203 199 198 204 210 202 205 206 201 207 213
195 196 198 197 200 202 205 204 203 202 202 197 198 203 196 198 197 195 197 197 198 201 201 202 202 203 202 202 207 210 211 204 202 200 207 211 203 208 206 208 207 214
194 196 196 199 201 203 206 205 205 205 199 198 202 202 202 203 202 200 197 197 201 203 203 205 205 205 203 204 207 209 210 211 206 202 205 208 209 211 208 206 209 215
194 195 195 199 203 205 206 206 204 205 200 203 203 201 202 207 204 204 202 201 204 205 206 208 206 207 206 207 208 207 209 212 211 210 209 211 211 213 211 206 211 215
195 194 197 199 203 204 207 206 205 204 202 205 204 203 204 203 206 203 204 205 207 209 208 208 209 206 208 209 209 209 209 210 212 214 215 216 216 215 211 210 213 216
196 196 199 200 202 204 206 206 205 205 203 205 204 205 204 204 204 203 204 207 211 211 210 211 209 208 209 210 209 209 210 212 213 215 217 218 220 221 217 215 216 219
198 199 200 200 200 203 204 204 206 206 204 205 204 206 205 205 205 206 206 208 212 212 212 212 211 209 210 211 211 209 210 212 214 216 218 219 222 222 222 220 221 223
201 200 201 201 200 201 203 204 205 206 206 206 204 207 208 208 206 206 208 209 211 212 215 214 212 211 211 211 211 211 211 213 214 215 217 220 222 224 223 223 222 223
199 200 201 201 200 201 203 206 207 207 206 205 205 208 209 210 209 207 208 211 214 214 215 215 213 213 211 211 212 214 212 215 215 216 216 218 222 225 225 225 225 225
197 197 199 199 199 201 203 206 207 207 207 207 207 208 209 209 210 210 210 210 212 214 216 216 216 214 215 212 210 211 212 215 217 219 218 218 220 224 227 226 226 226
195 199 198 200 201 202 203 205 207 207 208 210 210 208 208 207 208 211 212 211 211 213 215 217 218 218 214 211 212 213 211 212 216 221 219 219 219 221 224 225 227 227
197 196 199 201 200 203 203 204 205 207 210 210 210 210 209 207 210 213 213 212 212 214 217 218 221 220 213 211 211 211 210 213 215 220 220 221 222 222 225 226 229 230
195 196 199 200 201 201 202 202 204 208 210 210 212 211 207 209 213 213 214 213 212 214 218 219 223 220 213 210 209 209 209 212 220 218 220 224 224 224 226 227 228 230
195 197 198 199 198 198 199 202 204 209 209 210 212 210 211 213 214 216 216 214 214 215 219 221 223 221 210 209 208 208 209 206 222 221 222 227 224 224 225 227 227 228
195 196 198 197 197 197 198 202 204 207 207 208 208 210 211 213 214 216 217 216 215 216 220 224 226 218 207 207 209 208 209 203 219 224 229 229 228 225 225 226 228 228
192 194 196 196 196 197 200 203 204 204 205 204 207 212 216 219 222 222 222 220 218 218 221 227 228 215 206 207 208 209 204 203 216 224 229 233 232 229 226 228 228 228
192 193 195 196 196 197 201 203 203 205 206 200 206 210 213 216 219 219 221 221 220 218 221 227 230 217 205 205 206 204 193 210 216 223 230 234 236 232 230 228 228 227
191 192 194 195 196 199 200 202 204 204 203 197 204 208 213 216 216 220 221 221 220 222 220 225 230 217 197 200 198 195 194 206 214 220 228 232 237 235 234 234 231 228
191 193 194 195 197 199 199 200 201 202 202 199 206 208 213 212 213 217 219 219 221 223 221 222 228 215 187 191 195 196 198 211 213 220 228 231 233 237 235 237 238 233
192 193 194 195 197 198 199 200 199 201 202 202 206 208 211 211 213 216 218 220 217 219 220 218 219 215 187 192 194 198 198 204 213 217 226 229 230 235 236 236 237 239